COSMOS 2251 DEB, 35706

Orbit data source: Space-Track

COSMOS 2251 DEB, 35706 is space debris in LEO originally from a launch on Wed, 16 Jun 1993 UTC launched from the Plesetsk Missile And Space Complex (PKMTR). The debris from Iridium 33, an American commercial communications satellite, has been tracked extensively since its accidental collision with the defunct Russian satellite Cosmos 2251 in 2009. This event, occurring at high speed in low Earth orbit (LEO), generated thousands of pieces of space debris, significantly increasing the risk of further collisions. The Iridium 33 debris cloud has impacted space traffic management and orbital debris mitigation strategies, making it a subject of ongoing study in space situational awareness.

Loading next visibility...
Identifier
35706, 1993-036AQB
Orbit
LEO
Country
Flag of CISCIS
Related business
Manufacturer
Unknown
Mission
Spacecraft
Bus & Motor
Unknown
Mass
Unknown
Launch date (UTC)
1993-06-16 (33 years ago)
Launch vehicle
Unknown
Launch site
Plesetsk Missile And Space Complex (PKMTR)
Object type
Payload
Rocket body
Debris
Shape & HBR
Unknown shape, 0.1 m
Radar Cross Section
Small (<0.1 m²)

Expand to show TLE details & history
Last TLE update: 19 hours ago

TLE from 19 hours ago
0 COSMOS 2251 DEB
1 35706U 93036AQB 25352.46986150  .00000707  00000-0  59519-3 0  9994
2 35706  73.8894  53.3421 0340126 102.0554 261.8887 13.65935388621407
Epoch: 2025-12-18T11:16Z
TLE epoch observation values (Epoch: 2025-12-18T11:16:36.033Z)
Latitude
0.00002°
Longitude
156.86705°
Altitude
1,060.522 km
Speed
7.3 km/s
True Right ascension
03h 33m 22s
True Declination
0° 00' 00"
Sunlit
Object was in full shadow at epoch
Visualization orbit readout
Latitude
Unknown
Longitude
Unknown
Altitude
Unknown
Speed
Unknown
Apparent Right ascension
Unknown
Apparent Declination
Unknown
Sunlit
N/A
Visualization observer readout
Local Sidereal Time
05:17:49
Azimuth
Unknown
Elevation
Unknown
Doppler factor
Unknown
Orbital elements
Apogee altitude
1,263.265 km
Perigee altitude
760.555 km
Semi-major axis
7,390.047 km
Eccentricity
0.03401
Inclination
73.8894°
RAAN
53.3421°
Arg. of periapsis
102.0554°
True anomaly
258.05601°
Mean anomaly
261.8887°
Eccentric anomaly
259.96971°
Mean motion
3.41643 °/min
Orbital period
105.37 mins
BSTAR
0.00059519
Loading maneuver chart data...
Computing Atmospheric mass density...

Documentation

Showing up to 5 results
|